Date String (YYYY-MM-DD hh:mm:ss) UTC,Instrument flags,Ambient pressure (hPa),Sample flow (lpm),Bypass flow (lpm),Sample temperature (°C),Ambient temperature (°C),ASC tube jacket temperature (°C),LED temperature (°C),Box temperature (°C),Sample RH (%),Span deviation,Mass concentration (μg/m³),Mass concentration (μg/m³),Mass concentration (μg/m³)
DateTimeUTC,F1_M11,P_M11,Q1_M11,Q2_M11,T1_M11,T2_M11,T3_M11,T4_M11,T5_M11,U1_M11,ZSPAN_M11,X0_M11,X2_M11,X1_M11
2022-04-30 20:00:00,,0824.1,5.02,0.00,24.9,24.4,00.0,33.7,26.8,10.7,0000.0,0014.02,0004.79,0003.90
2022-04-30 20:01:00,,0824.1,5.00,0.00,24.9,24.4,00.0,33.7,26.8,10.8,0000.0,0013.35,0004.75,0003.88
2022-04-30 20:02:00,,0824.1,4.99,0.00,24.9,24.5,00.0,33.7,26.8,10.9,0000.0,0013.34,0004.79,0003.90
2022-04-30 20:03:00,,0824.1,4.99,0.00,24.9,24.5,00.0,33.8,26.8,10.7,0000.0,0013.01,0004.82,0003.95
2022-04-30 20:04:00,,0824.1,5.01,0.00,24.9,24.5,00.0,33.8,26.8,10.6,0000.0,0012.35,0004.81,0003.99
2022-04-30 20:05:00,,0824.1,5.01,0.00,25.0,24.5,00.0,33.8,26.8,10.9,0000.0,0012.67,0004.79,0004.02
2022-04-30 20:06:00,,0824.1,4.99,0.00,25.0,24.5,00.0,33.8,26.8,10.7,0000.0,0012.38,0004.77,0004.03
2022-04-30 20:07:00,,0824.1,5.00,0.00,25.0,24.5,00.0,33.8,26.9,10.9,0000.0,0012.11,0004.74,0004.01
2022-04-30 20:08:00,,0824.1,5.01,0.00,25.0,24.5,00.0,33.8,26.9,11.0,0000.0,0013.16,0004.70,0003.98
2022-04-30 20:09:00,,0824.1,5.00,0.00,25.0,24.5,00.0,33.8,26.9,10.8,0000.0,0012.91,0004.69,0003.97
2022-04-30 20:10:00,,0824.2,5.00,0.00,25.0,24.6,00.0,33.9,26.9,10.9,0000.0,0012.61,0004.69,0003.96
2022-04-30 20:11:00,,0824.2,4.99,0.00,25.0,24.5,00.0,33.9,26.9,10.8,0000.0,0011.29,0004.69,0003.99
2022-04-30 20:12:00,,0824.1,5.02,0.00,25.0,24.6,00.0,33.9,26.9,10.6,0000.0,0011.14,0004.74,0004.03
2022-04-30 20:13:00,,0824.2,4.99,0.00,25.1,24.6,00.0,33.9,26.9,10.8,0000.0,0011.26,0004.78,0004.08
2022-04-30 20:14:00,,0824.1,5.00,0.00,25.1,24.6,00.0,33.9,26.9,10.7,0000.0,0011.79,0004.79,0004.08
2022-04-30 20:15:00,,0824.1,5.00,0.00,25.1,24.6,00.0,33.9,27.0,10.5,0000.0,0011.82,0004.74,0004.04
2022-04-30 20:16:00,,0824.1,5.00,0.00,25.1,24.6,00.0,33.9,27.0,10.4,0000.0,0011.93,0004.78,0004.03
2022-04-30 20:17:00,,0824.1,5.00,0.00,25.1,24.6,00.0,33.9,27.0,10.5,0000.0,0012.30,0004.78,0004.03
2022-04-30 20:18:00,,0824.1,5.00,0.00,25.1,24.7,00.0,34.0,27.0,10.6,0000.0,0012.75,0004.76,0004.04
2022-04-30 20:19:00,,0824.1,5.01,0.00,25.1,24.7,00.0,34.0,27.0,10.5,0000.0,0012.06,0004.74,0004.04
2022-04-30 20:20:00,,0824.1,5.00,0.00,25.1,24.7,00.0,34.0,27.0,10.5,0000.0,0011.78,0004.71,0004.05
2022-04-30 20:21:00,,0824.1,4.99,0.00,25.2,24.7,00.0,34.0,27.0,10.6,0000.0,0011.55,0004.69,0004.04
2022-04-30 20:22:00,,0824.1,5.00,0.00,25.2,24.7,00.0,34.0,27.1,10.7,0000.0,0011.63,0004.70,0004.03
2022-04-30 20:23:00,,0824.1,5.00,0.00,25.2,24.7,00.0,34.0,27.1,10.5,0000.0,0011.98,0004.74,0004.04
2022-04-30 20:24:00,,0824.1,5.01,0.00,25.2,24.7,00.0,34.0,27.1,10.6,0000.0,0011.88,0004.70,0004.02
2022-04-30 20:25:00,,0824.1,5.01,0.00,25.2,24.7,00.0,34.1,27.1,10.5,0000.0,0011.35,0004.66,0004.01
2022-04-30 20:26:00,,0824.1,4.99,0.00,25.2,24.8,00.0,34.1,27.1,10.2,0000.0,0011.06,0004.73,0004.02
2022-04-30 20:27:00,,0824.1,5.00,0.00,25.2,24.8,00.0,34.1,27.1,10.3,0000.0,0010.52,0004.76,0004.04
2022-04-30 20:28:00,,0824.1,4.99,0.00,25.3,24.8,00.0,34.1,27.1,10.6,0000.0,0010.52,0004.78,0004.05
2022-04-30 20:29:00,,0824.1,5.00,0.00,25.3,24.8,00.0,34.1,27.1,10.6,0000.0,0010.16,0004.81,0004.05
2022-04-30 20:30:00,,0824.1,5.01,0.00,25.3,24.9,00.0,34.1,27.2,10.5,0000.0,0009.54,0004.85,0004.05
2022-04-30 20:31:00,,0824.2,4.99,0.00,25.3,24.9,00.0,34.1,27.2,10.6,0000.0,0009.76,0004.93,0004.05
2022-04-30 20:32:00,,0824.1,5.00,0.00,25.3,24.9,00.0,34.1,27.2,10.5,0000.0,0010.23,0005.01,0004.06
2022-04-30 20:33:00,,0824.1,5.01,0.00,25.3,24.9,00.0,34.2,27.2,10.7,0000.0,0011.45,0005.05,0004.07
2022-04-30 20:34:00,,0824.1,5.00,0.00,25.4,24.9,00.0,34.2,27.2,10.4,0000.0,0011.76,0005.01,0004.04
2022-04-30 20:35:00,,0824.1,4.99,0.00,25.4,24.9,00.0,34.2,27.2,10.2,0000.0,0012.64,0005.04,0004.04
2022-04-30 20:36:00,,0824.1,4.99,0.00,25.4,24.9,00.0,34.2,27.2,10.1,0000.0,0013.02,0005.09,0004.05
2022-04-30 20:37:00,,0824.1,5.00,0.00,25.4,24.9,00.0,34.2,27.3,10.2,0000.0,0014.01,0005.14,0004.06
2022-04-30 20:38:00,,0824.1,5.01,0.00,25.4,24.9,00.0,34.2,27.2,10.2,0000.0,0014.50,0005.11,0004.05
2022-04-30 20:39:00,,0824.1,4.99,0.00,25.4,24.9,00.0,34.2,27.3,10.5,0000.0,0014.27,0005.10,0004.04
2022-04-30 20:40:00,,0824.0,5.01,0.00,25.4,24.9,00.0,34.3,27.3,10.3,0000.0,0013.99,0005.10,0004.05
2022-04-30 20:41:00,,0824.0,4.99,0.00,25.4,24.9,00.0,34.3,27.3,10.3,0000.0,0014.21,0005.12,0004.06
2022-04-30 20:42:00,,0824.0,5.00,0.00,25.4,24.9,00.0,34.3,27.3,10.4,0000.0,0014.93,0005.08,0004.06
2022-04-30 20:43:00,,0824.0,5.00,0.00,25.5,24.9,00.0,34.3,27.3,10.5,0000.0,0014.93,0005.04,0004.05
2022-04-30 20:44:00,,0824.0,5.01,0.00,25.5,24.9,00.0,34.3,27.3,10.2,0000.0,0014.68,0004.99,0004.03
2022-04-30 20:45:00,,0824.1,5.01,0.00,25.5,25.0,00.0,34.3,27.3,10.3,0000.0,0014.54,0004.99,0004.01
2022-04-30 20:46:00,,0824.0,4.99,0.00,25.5,25.0,00.0,34.3,27.4,10.2,0000.0,0013.78,0004.97,0003.98
2022-04-30 20:47:00,,0824.0,5.00,0.00,25.5,25.0,00.0,34.3,27.4,10.3,0000.0,0013.68,0004.94,0003.96
2022-04-30 20:48:00,,0824.0,5.00,0.00,25.5,25.0,00.0,34.3,27.4,10.2,0000.0,0012.54,0004.84,0003.95
2022-04-30 20:49:00,,0824.0,5.02,0.00,25.5,25.0,00.0,34.4,27.5,10.2,0000.0,0012.47,0004.83,0003.95
2022-04-30 20:50:00,,0824.1,4.99,0.00,25.6,25.1,00.0,34.4,27.5,10.3,0000.0,0012.73,0004.86,0003.96
2022-04-30 20:51:00,,0824.1,5.00,0.00,25.6,25.1,00.0,34.4,27.5,10.3,0000.0,0012.69,0004.89,0003.97
2022-04-30 20:52:00,,0824.1,5.01,0.00,25.6,25.1,00.0,34.4,27.5,10.0,0000.0,0012.51,0004.90,0003.97
2022-04-30 20:53:00,,0824.1,4.99,0.00,25.6,25.1,00.0,34.4,27.5,09.9,0000.0,0012.10,0004.90,0003.99
2022-04-30 20:54:00,,0824.0,4.99,0.00,25.6,25.1,00.0,34.4,27.5,10.0,0000.0,0012.30,0004.86,0004.01
2022-04-30 20:55:00,,0824.1,5.00,0.00,25.6,25.1,00.0,34.5,27.5,10.1,0000.0,0011.89,0004.84,0004.03
2022-04-30 20:56:00,,0824.0,5.01,0.00,25.6,25.1,00.0,34.5,27.5,10.0,0000.0,0011.48,0004.82,0004.07
2022-04-30 20:57:00,,0824.0,5.00,0.00,25.6,25.1,00.0,34.5,27.5,10.2,0000.0,0011.49,0004.84,0004.09
2022-04-30 20:58:00,,0824.0,4.99,0.00,25.6,25.1,00.0,34.5,27.5,10.1,0000.0,0011.31,0004.84,0004.08
2022-04-30 20:59:00,,0823.9,5.01,0.00,25.7,25.1,00.0,34.5,27.5,10.3,0000.0,0011.48,0004.85,0004.05
